Tracking 19832 objects as of 25-Aug-2019
HD Live streaming from Space Station
objects crossing your sky now

FLOCK 2E 3


FLOCK 2E 3 is no longer on orbit
FLOCK 2E 3 is classified as:


NORAD ID: 41486
Int'l Code: 1998-067JG
Perigee: N/A
Apogee: N/A
Inclination: N/A
Period: N/A
Semi major axis: N/A
RCS: N/A
Launch date: November 20, 1998
Source: United States (US)
Launch site: TYURATAM MISSILE AND SPACE COMPLEX (TTMTR)
Decay date: 2018-04-05
aabbcc
Your satellite tracking list
Your tracking list is empty




NASA's NSSDC Master Catalog

Two Line Element Set (TLE):
1 41486U 98067JG  18095.03837008  .16445790  12525-4  43382-3 0  9993
2 41486  51.6039 309.2783 0005505 253.9664 106.6974 16.45478087107800
Source of the keplerian elements: AFSPC